[[{"header":{"parameterUnit":"m.s-1","parameterCategory":1,"la1":30.2991,"la2":30.254,"lo1":-89.0895,"lo2":-89.0444,"dy":0.0017,"dx":0.0017,"nx":28,"ny":28,"refTime":"2025-12-22T03:00:00:Z","depth":0,"parameterNumber":2,"parameterNumberName":"U-component_of_WINDS"},"data":[0,0,0,0,0,0,0,0,0,0,0,0,0,0,0,0,0,0,0,0,0,0,0,0,0,0,0,0,0,0,0,0,0,0,0,0,0,0,0,0,0,0,0,0,0,0,0,0,0,0,0,0,0,0,0,0,0,0,-2.0156,-2.0159,0,-2.0392,-2.0394,-2.0397,-2.047,-2.0469,-2.0468,-2.0466,-2.0716,-2.0723,-2.0731,0,0,0,0,0,0,0,0,0,0,0,0,0,-1.9778,-1.9784,-2.0156,-2.0159,-2.0162,-2.0391,-2.0395,-2.0398,-2.047,-2.0469,-2.0467,-2.0466,-2.0713,-2.0722,-2.0731,0,0,0,0,0,0,0,0,0,0,0,0,0,-1.9971,-1.9786,-2.0156,-2.0226,-2.0234,-2.0391,-2.0395,-2.0399,-2.047,-2.0469,-2.0467,-2.0465,-2.071,-2.0721,-2.0733,-2.0839,0,0,-2.0768,-2.0773,0,0,0,0,0,0,0,0,-1.996,-1.9985,-2.0212,-2.0221,-2.0231,-2.0399,-2.0353,-2.0547,-2.0471,-2.0381,-2.0466,-2.0464,-2.0612,-2.0632,-2.068,-2.0851,-2.0862,-2.0769,-2.0776,-2.0781,-2.0784,0,0,0,0,0,0,0,-1.9946,-1.9975,-2.025,-2.0216,-2.0227,-2.0248,-2.0273,-2.039,-2.0504,-2.0389,-2.0394,-2.0421,-2.0617,-2.0669,-2.0687,-2.0865,-2.0769,-2.0779,-2.0786,-2.0791,-2.1137,-2.1139,0,0,0,0,0,0,-1.992,-1.9963,-2.0242,-2.0257,-2.0088,-2.0256,-2.0285,-2.0347,-2.0503,-2.0525,-2.0422,-2.0423,-2.065,-2.0673,-2.0696,-2.0831,-2.0781,-2.0792,-2.0799,-2.1135,-2.1138,-2.114,0,0,0,0,0,0,-1.9911,-1.9944,-2.0233,-2.0112,-2.015,-2.0265,-2.0334,-2.0353,-2.0404,-2.0528,-2.0549,-2.0453,-2.0649,-2.0679,-2.0803,-2.084,-2.0797,-2.0808,-2.1132,-2.1136,-2.1139,-2.1101,0,0,0,0,0,0,-1.99,-1.994,-1.998,-2.0112,-2.0156,-2.0333,-2.0337,-2.0359,-2.0423,-2.0427,-2.0563,-2.0584,-2.065,-2.0785,-2.0814,-2.0855,-2.0817,-2.1129,-2.1134,-2.1138,-2.1099,-2.1102,-2.1105,0,0,0,0,0,-1.9886,-1.9961,-1.9981,-2.0015,-2.0207,-2.0335,-2.036,-2.0433,-2.0426,-2.0468,-2.0548,-2.0579,-2.0832,-2.0797,-2.0831,-2.0876,-2.1127,-2.1132,-2.1137,-2.1098,-2.1102,-2.1105,0,0,0,0,0,0,-1.9833,-1.998,-2.0004,-2.0123,-2.0215,-2.0347,-2.0401,-2.0435,-2.0533,-2.0533,-2.0622,-2.0652,-2.0769,-2.0836,-2.0794,-2.0988,-2.0981,-2.0993,-2.0939,-2.0944,-2.0947,-2.0928,-2.0826,0,0,0,0,0,-1.9835,-1.9923,-2.0048,-2.0141,-2.0186,-2.0286,-2.0344,-2.0392,-2.0493,-2.0533,-2.0622,-2.0721,-2.0822,-2.0888,-2.0988,-2.111,-2.1141,-2.1158,-2.1161,-2.1163,-2.1172,-2.1242,-2.1251,-2.1157,-2.1157,-2.1157,0,0,-1.984,-1.9931,-1.9982,-2.0133,-2.021,-2.0302,-2.0318,-2.0415,-2.0485,-2.0549,-2.0669,-2.0739,-2.0855,-2.0978,-2.1037,-2.1037,-2.1205,-2.1169,-2.117,-2.1178,-2.1248,-2.1257,-2.1265,-2.116,-2.1159,-2.1159,0,0,-1.9895,-1.9973,-2.0059,-2.0136,-2.0252,-2.0318,-2.0339,-2.0466,-2.0513,-2.0636,-2.0685,-2.0772,-2.0945,-2.1026,-2.109,-2.1178,-2.1212,-2.1209,-2.1224,-2.1292,-2.1299,-2.1306,-2.1338,-2.1348,-2.1218,-2.1218,-2.1218,0,-1.9887,-2.0025,-2.01,-2.0194,-2.026,-2.032,-2.0409,-2.0482,-2.0626,-2.0671,-2.0669,-2.0887,-2.097,-2.1113,-2.1134,-2.1185,-2.1213,-2.1193,-2.1292,-2.13,-2.1307,-2.1338,-2.135,-2.1217,-2.1217,-2.1217,-2.1217,0,-2.001,-2.0105,-2.0162,-2.0296,-2.0369,-2.046,-2.0551,-2.0617,-2.0659,-2.0726,-2.0851,-2.0953,-2.1075,-2.1113,-2.1157,-2.1264,-2.126,-2.1274,-2.1268,-2.1314,-2.1344,-2.1357,-2.1215,-2.1215,-2.1216,-2.1216,0,0,-2.0036,-2.0211,-2.0231,-2.0293,-2.0427,-2.0503,-2.0599,-2.0716,-2.077,-2.0869,-2.0952,-2.1098,-2.1112,-2.1184,-2.1238,-2.1298,-2.1361,-2.1305,-2.1309,-2.1311,-2.1486,-2.1473,-2.1485,-2.1385,-2.1388,-2.139,-2.1476,0,-2.0108,-2.0277,-2.0348,-2.0486,-2.0576,-2.0635,-2.0719,-2.0812,-2.0878,-2.0966,-2.1041,-2.1142,-2.1153,-2.1197,-2.1258,-2.134,-2.1397,-2.1335,-2.1465,-2.1469,-2.1431,-2.1501,-2.1488,-2.1564,-2.1488,-2.149,-2.1492,0,-2.0214,-2.031,-2.0455,-2.0579,-2.0619,-2.0692,-2.0806,-2.0889,-2.0997,-2.1041,-2.1122,-2.1173,-2.1279,-2.1268,-2.1416,-2.1372,-2.143,-2.1478,-2.1483,-2.1497,-2.1481,-2.1516,-2.159,-2.1601,-2.1511,-2.151,-2.1508,0,-2.0217,-2.0384,-2.0492,-2.0544,-2.0691,-2.0741,-2.0805,-2.0911,-2.0977,-2.1078,-2.1123,-2.1235,-2.1297,-2.1385,-2.1466,-2.145,-2.1606,-2.1602,-2.1647,-2.1645,-2.1676,-2.1672,-2.1759,-2.1715,-2.1715,-2.1715,-2.1715,0,-2.0289,-2.0375,-2.0496,-2.0562,-2.0662,-2.0745,-2.0842,-2.0911,-2.1005,-2.1089,-2.1149,-2.1227,-2.133,-2.1421,-2.1487,-2.1599,-2.1627,-2.1667,-2.1683,-2.1661,-2.1655,-2.1699,-2.1695,-2.1718,-2.1717,-2.1717,-2.1716,0,-2.0308,-2.0392,-2.0514,-2.0643,-2.0678,-2.0746,-2.0858,-2.0927,-2.0996,-2.1101,-2.113,-2.1241,-2.1352,-2.1442,-2.1588,-2.1632,-2.175,-2.1769,-2.1712,-2.172,-2.176,-2.1754,-2.1876,-2.1896,-2.1839,-2.184,-2.184,0,-2.0347,-2.0415,-2.0551,-2.061,-2.0672,-2.0767,-2.0834,-2.092,-2.0988,-2.1116,-2.117,-2.1285,-2.1381,-2.1557,-2.1652,-2.1764,-2.1786,-2.1821,-2.1803,-2.1779,-2.1786,-2.178,-2.1787,-2.1822,-2.1822,-2.1822,-2.1823,0,-2.0408,-2.0446,-2.0539,-2.0648,-2.0726,-2.0816,-2.0908,-2.0954,-2.1057,-2.1131,-2.1244,-2.1319,-2.1467,-2.1581,-2.1704,-2.1774,-2.1816,-2.1828,-2.1844,-2.1821,-2.1785,-2.1804,-2.1715,-2.1824,-2.1824,-2.1824,-2.1824,-2.1824,-2.0439,-2.0501,-2.0606,-2.0709,-2.0787,-2.0872,-2.0942,-2.102,-2.1115,-2.124,-2.1286,-2.1402,-2.1512,-2.168,-2.1751,-2.1845,-2.1849,-2.1873,-2.1879,-2.1883,-2.188,-2.1771,-2.1868,-2.1868,-2.1868,-2.1869,-2.1869,0,-2.0501,-2.0572,-2.0665,-2.0791,-2.0872,-2.0903,-2.1007,-2.1073,-2.1173,-2.127,-2.1363,-2.1494,-2.1606,-2.1709,-2.1827,-2.1882,-2.1905,-2.191,-2.1906,-2.1922,-2.187,-2.1843,-2.189,-2.189,-2.189,-2.189,-2.189,-2.189,-2.0543,-2.0651,-2.0702,-2.0851,-2.0922,-2.1034,-2.1091,-2.117,-2.1248,-2.139,-2.1481,-2.1548,-2.1649,-2.1774,-2.1878,-2.1906,-2.1947,-2.1947,-2.198,-2.1929,-2.1925,-2.1922,-2.1898,-2.1955,-2.1955,-2.2024,-2.2025,-2.2025]},{"header":{"parameterUnit":"m.s-1","parameterCategory":1,"la1":30.2991,"la2":30.254,"lo1":-89.0895,"lo2":-89.0444,"dy":0.0017,"dx":0.0017,"nx":28,"ny":28,"refTime":"2025-12-22T03:00:00:Z","depth":0,"parameterNumber":3,"parameterNumberName":"V-component_of_WINDS"},"data":[0,0,0,0,0,0,0,0,0,0,0,0,0,0,0,0,0,0,0,0,0,0,0,0,0,0,0,0,0,0,0,0,0,0,0,0,0,0,0,0,0,0,0,0,0,0,0,0,0,0,0,0,0,0,0,0,0,0,1.9744,1.9744,0,1.9815,1.9816,1.9817,1.9852,1.9852,1.9852,1.9852,1.9922,1.9923,1.9925,0,0,0,0,0,0,0,0,0,0,0,0,0,1.9633,1.9635,1.9744,1.9744,1.9745,1.9815,1.9816,1.9817,1.9852,1.9852,1.9852,1.9852,1.9921,1.9923,1.9925,0,0,0,0,0,0,0,0,0,0,0,0,0,1.969,1.9635,1.9743,1.9771,1.9775,1.9815,1.9816,1.9817,1.9852,1.9852,1.9852,1.9852,1.992,1.9923,1.9926,1.9943,0,0,1.9934,1.9935,0,0,0,0,0,0,0,0,1.9687,1.9694,1.9766,1.9769,1.9773,1.9825,1.9803,1.9859,1.9852,1.9822,1.9852,1.9852,1.9889,1.9895,1.9908,1.9946,1.9949,1.9935,1.9936,1.9937,1.9938,0,0,0,0,0,0,0,1.9683,1.9691,1.9772,1.9767,1.9771,1.9779,1.9787,1.9814,1.9855,1.9825,1.9828,1.9836,1.9891,1.9905,1.991,1.995,1.9934,1.9937,1.9939,1.994,2.0005,2.0005,0,0,0,0,0,0,1.9675,1.9688,1.977,1.9774,1.9729,1.9781,1.979,1.9808,1.9855,1.9862,1.9836,1.9837,1.99,1.9906,1.9912,1.9935,1.9937,1.994,1.9942,2.0005,2.0005,2.0005,0,0,0,0,0,0,1.9672,1.9682,1.9767,1.9732,1.9743,1.9783,1.9803,1.981,1.9824,1.9863,1.987,1.9843,1.9901,1.9908,1.9935,1.9938,1.9941,1.9944,2.0005,2.0005,2.0005,1.9981,0,0,0,0,0,0,1.9669,1.9681,1.9689,1.9732,1.9745,1.9789,1.9803,1.9811,1.9829,1.9831,1.9871,1.9878,1.9901,1.9931,1.9938,1.9942,1.9946,2.0005,2.0005,2.0005,1.9982,1.998,1.9979,0,0,0,0,0,1.9665,1.9678,1.9689,1.9699,1.9756,1.979,1.9797,1.9825,1.9829,1.9837,1.9862,1.9877,1.9936,1.9933,1.9941,1.9946,2.0005,2.0005,2.0005,1.9982,1.998,1.9979,0,0,0,0,0,0,1.9633,1.9684,1.9697,1.9725,1.9753,1.9795,1.9806,1.9822,1.9848,1.9849,1.9881,1.989,1.9913,1.9932,1.9928,1.9965,1.9972,1.9974,1.9952,1.995,1.9949,1.9944,1.9948,0,0,0,0,0,1.963,1.9654,1.9697,1.9717,1.9731,1.9766,1.9782,1.9801,1.983,1.9842,1.9869,1.9896,1.9921,1.9937,1.9962,1.9984,1.9993,1.9992,1.999,1.9989,1.999,2.0003,2.0003,2.0006,2.0006,2.0006,0,0,1.9623,1.9653,1.9667,1.9712,1.9736,1.9759,1.9776,1.98,1.9817,1.9845,1.9873,1.9893,1.9925,1.995,1.9962,1.9967,1.9991,1.9989,1.9988,1.999,2.0003,2.0003,2.0002,2.0006,2.0006,2.0006,0,0,1.9621,1.9647,1.9667,1.9691,1.9727,1.975,1.9755,1.9796,1.9811,1.9839,1.986,1.988,1.9923,1.9945,1.9961,1.9968,1.9982,1.9975,1.9968,1.998,1.998,1.998,1.9981,1.9982,1.9976,1.9976,1.9976,0,1.9607,1.9645,1.9675,1.9698,1.9717,1.9745,1.9764,1.9785,1.9827,1.9839,1.9844,1.9897,1.9921,1.9951,1.9952,1.9965,1.997,1.9971,1.9977,1.9978,1.9978,1.998,1.9981,1.9974,1.9975,1.9975,1.9975,0,1.9626,1.9651,1.9663,1.9704,1.9724,1.9745,1.9777,1.9793,1.981,1.9832,1.986,1.9889,1.992,1.9929,1.9945,1.996,1.9962,1.9972,1.9979,1.9976,1.9979,1.998,1.9973,1.9973,1.9974,1.9974,0,0,1.9607,1.9665,1.9669,1.9687,1.9729,1.9749,1.977,1.9802,1.9816,1.9843,1.9861,1.9896,1.9905,1.9924,1.9943,1.9953,1.9956,1.9962,1.9963,1.996,1.9975,1.9967,1.9968,1.9966,1.9966,1.9966,1.9972,0,1.9612,1.9654,1.9681,1.9712,1.9735,1.9761,1.978,1.9807,1.9828,1.9849,1.9872,1.9896,1.9906,1.9918,1.9929,1.9953,1.9959,1.9953,1.9982,1.9983,1.9974,1.9969,1.9962,1.9966,1.9973,1.9973,1.9973,0,1.9623,1.9652,1.9685,1.9724,1.9734,1.9751,1.9782,1.9803,1.9833,1.9848,1.9869,1.9888,1.991,1.9915,1.9946,1.9941,1.9955,1.9968,1.9969,1.9973,1.9978,1.9973,1.9968,1.9968,1.9975,1.9975,1.9975,0,1.9606,1.9652,1.9678,1.9694,1.974,1.9751,1.977,1.98,1.9818,1.9844,1.9855,1.9883,1.9899,1.9919,1.9945,1.9947,1.9973,1.9981,1.9985,1.9984,1.9989,1.9989,1.9986,1.9997,1.9997,1.9997,1.9997,0,1.9609,1.9628,1.9671,1.9687,1.9709,1.974,1.976,1.9781,1.9808,1.9827,1.9851,1.9868,1.9901,1.9921,1.9941,1.9963,1.997,1.9981,1.9987,1.998,1.9978,1.9989,1.9989,1.9998,1.9998,1.9998,1.9998,0,1.9594,1.9624,1.9654,1.9695,1.9706,1.972,1.9755,1.977,1.9792,1.9816,1.9823,1.9857,1.9883,1.9911,1.9945,1.9959,1.998,1.9987,1.997,1.9973,1.9975,1.9975,1.998,1.9982,1.9991,1.9991,1.9991,0,1.9594,1.9609,1.9652,1.9668,1.9687,1.9711,1.9729,1.9759,1.9776,1.9812,1.9823,1.985,1.9874,1.9914,1.9941,1.9967,1.9975,1.9975,1.9979,1.9971,1.9975,1.9974,1.9975,1.9974,1.9973,1.9973,1.9973,0,1.959,1.9604,1.963,1.966,1.9681,1.9707,1.9733,1.9743,1.9778,1.9796,1.9823,1.9842,1.9878,1.9905,1.9934,1.9952,1.9968,1.9972,1.9974,1.9967,1.9957,1.9962,1.9967,1.9971,1.9972,1.9972,1.9972,1.9972,1.9583,1.9598,1.963,1.9658,1.9681,1.9704,1.9721,1.9745,1.9769,1.9802,1.9817,1.9844,1.9873,1.9915,1.9932,1.9953,1.9958,1.9961,1.9962,1.9962,1.996,1.9953,1.9958,1.9958,1.9959,1.9959,1.9959,0,1.958,1.9603,1.9628,1.9664,1.9685,1.9699,1.9728,1.9745,1.9769,1.9795,1.9818,1.9849,1.9875,1.9904,1.9931,1.9942,1.995,1.9948,1.9948,1.9951,1.9955,1.995,1.9941,1.9941,1.9941,1.9941,1.9941,1.9941,1.9582,1.9608,1.9625,1.9662,1.9684,1.9712,1.9727,1.9748,1.977,1.9804,1.9826,1.9845,1.9872,1.9901,1.9925,1.9933,1.9941,1.9938,1.9947,1.995,1.9951,1.9953,1.9948,1.9939,1.9939,1.9942,1.9942,1.9942]}]]